Pineville, WV

12:35 AM EDT on June 25, 2017 (GMT -0400)
Pineville

Weather History for KI16 - June, 2014

Change the Weather History Date:

Tuesday, June 17, 2014

  Actual Average (KBKW) Record (KBKW)
Temperature  
Mean Temperature 76 °F -  
Max Temperature 90 °F 75 °F 93 °F (1936)
Min Temperature 62 °F 57 °F 40 °F (1961)
Cooling Degree Days 11    
Growing Degree Days 26 (Base 50)    
Moisture  
Dew Point 67 °F    
Average Humidity 79    
Maximum Humidity 100    
Minimum Humidity 44    
Precipitation  
Precipitation 0.00 in - - ()
Sea Level Pressure  
Sea Level Pressure 30.23 in    
Wind  
Wind Speed - (North)    
Max Wind Speed -    
Max Gust Speed -    
Visibility 8 miles    
Events      
Averages and records for this station are not official NWS values.
T = Trace of Precipitation, MM = Missing Value Source: NWS Daily Summary

Daily Weather History Graph

Daily Weather History Graph

Search for Another Location

Airport or City:

Trip Planner

Search our weather history database for the weather conditions in past years. The results will help you decide how hot, cold, wet, or windy it might be!

Date:

Astronomy

Jun. 17, 2014 Rise Set
Actual Time 6:04 AM EDT 8:49 PM EDT
Civil Twilight 5:33 AM EDT 9:21 PM EDT
Nautical Twilight 4:54 AM EDT 10:00 PM EDT
Astronomical Twilight 4:10 AM EDT 10:44 PM EDT
Moon No Moon Rise 11:12 AM EDT (6/17)
Length of Visible Light 15h 47m
Length of Day
14h 45m
Waning Gibbous, 73% of the Moon is Illuminated
Jun 17
Waning Gibbous
Jun 19
Last Quarter
Jun 27
New
Jul 5
First Quarter
Jul 12
Full

Hourly Weather History & Observations

Time (EDT) Temp. Heat Index Dew Point Humidity Pressure Visibility Wind Dir Wind Speed Gust Speed Precip Events Conditions
12:15 AM 66.4 °F - 66.2 °F 99% 30.24 in 10.0 mi North - - N/A   Clear
12:35 AM 66.2 °F - 66.0 °F 99% 30.24 in 7.0 mi North - - N/A   Clear
12:55 AM 66.2 °F - 65.8 °F 99% 30.24 in 7.0 mi North - - N/A   Clear
1:15 AM 65.7 °F - 65.5 °F 99% 30.23 in 7.0 mi North - - N/A   Clear
1:35 AM 65.5 °F - 65.5 °F 100% 30.23 in 7.0 mi North - - N/A   Clear
1:55 AM 65.7 °F - 65.7 °F 100% 30.22 in 7.0 mi North - - N/A   Clear
2:15 AM 64.9 °F - 64.9 °F 100% 30.22 in 7.0 mi North - - N/A   Clear
2:35 AM 64.8 °F - 64.8 °F 100% 30.22 in 7.0 mi North - - N/A   Clear
2:50 AM 64.6 °F - 64.6 °F 100% 30.22 in 7.0 mi North - - N/A   Clear
3:15 AM 64.0 °F - 64.0 °F 100% 30.22 in 5.0 mi North - - N/A   Clear
3:35 AM 64.4 °F - 64.4 °F 100% 30.22 in 5.0 mi North - - N/A   Clear
3:50 AM 63.9 °F - 63.9 °F 100% 30.22 in 5.0 mi North - - N/A   Clear
4:15 AM 63.7 °F - 63.7 °F 100% 30.23 in 7.0 mi North - - N/A   Clear
4:35 AM 63.5 °F - 63.5 °F 100% 30.23 in 5.0 mi North - - N/A   Clear
4:55 AM 63.5 °F - 63.5 °F 100% 30.23 in 5.0 mi North - - N/A   Clear
5:15 AM 63.0 °F - 63.0 °F 100% 30.23 in 5.0 mi North - - N/A   Clear
5:35 AM 62.6 °F - 62.6 °F 100% 30.24 in 5.0 mi North - - N/A   Clear
5:55 AM 62.8 °F - 62.8 °F 100% 30.25 in 5.0 mi North - - N/A   Clear
6:10 AM 62.2 °F - 62.2 °F 100% 30.25 in 4.0 mi North - - N/A   Clear
6:35 AM 62.6 °F - 62.6 °F 100% 30.25 in 5.0 mi North - - N/A   Clear
7:00 AM 63.1 °F - 63.1 °F 100% 30.27 in 5.0 mi North - - N/A   Clear
7:15 AM 63.5 °F - 63.5 °F 100% 30.28 in 5.0 mi North - - N/A   Clear
7:35 AM 64.4 °F - 64.4 °F 100% 30.28 in 7.0 mi North - - N/A   Clear
7:55 AM 65.5 °F - 65.5 °F 100% 30.28 in 10.0 mi North - - N/A   Clear
8:55 AM 71.6 °F - 66.6 °F 84% 30.29 in 10.0 mi North - - N/A   Clear
9:15 AM 73.6 °F - 67.5 °F 81% 30.29 in 10.0 mi North - - N/A   Clear
9:35 AM 77.2 °F - 69.3 °F 76% 30.29 in 10.0 mi North - - N/A   Clear
9:55 AM 79.3 °F - 69.8 °F 72% 30.29 in 10.0 mi North - - N/A   Clear
10:10 AM 80.6 °F 83.8 °F 69.6 °F 69% 30.29 in 10.0 mi North - - N/A   Clear
10:35 AM 81.7 °F 85.2 °F 69.8 °F 67% 30.29 in 10.0 mi North - - N/A   Clear
10:55 AM 82.0 °F 85.9 °F 70.0 °F 67% 30.28 in 10.0 mi North - - N/A   Scattered Clouds
11:15 AM 83.1 °F 87.1 °F 70.0 °F 64% 30.28 in 10.0 mi North - - N/A   Clear
11:35 AM 83.7 °F 87.7 °F 69.8 °F 63% 30.28 in 10.0 mi North - - N/A   Clear
11:55 AM 84.7 °F 89.1 °F 70.0 °F 61% 30.27 in 10.0 mi North - - N/A   Clear
12:15 PM 85.8 °F 90.4 °F 70.0 °F 59% 30.26 in 10.0 mi North - - N/A   Clear
12:35 PM 85.6 °F 90.1 °F 69.8 °F 59% 30.26 in 10.0 mi North - - N/A   Scattered Clouds
12:55 PM 87.8 °F 93.0 °F 70.3 °F 56% 30.26 in 10.0 mi North - - N/A   Mostly Cloudy
1:10 PM 87.1 °F 91.3 °F 69.1 °F 55% 30.26 in 10.0 mi North - - N/A   Mostly Cloudy
1:35 PM 88.2 °F 91.7 °F 67.8 °F 51% 30.25 in 10.0 mi North - - N/A   Scattered Clouds
1:55 PM 88.0 °F 91.4 °F 68.0 °F 51% 30.24 in 10.0 mi North - - N/A   Scattered Clouds
2:15 PM 88.3 °F 92.0 °F 68.0 °F 51% 30.23 in 10.0 mi North - - N/A   Clear
2:35 PM 88.9 °F 92.2 °F 67.6 °F 49% 30.22 in 10.0 mi North - - N/A   Clear
2:50 PM 88.7 °F 92.2 °F 67.6 °F 50% 30.22 in 10.0 mi North - - N/A   Scattered Clouds
3:10 PM 88.9 °F 91.4 °F 66.4 °F 47% 30.21 in 10.0 mi North - - N/A   Scattered Clouds
3:35 PM 89.6 °F 93.0 °F 67.8 °F 48% 30.21 in 10.0 mi North - - N/A   Clear
3:55 PM 89.8 °F 92.9 °F 66.9 °F 47% 30.21 in 10.0 mi North - - N/A   Clear
4:15 PM 89.2 °F 91.6 °F 66.0 °F 46% 30.20 in 10.0 mi North - - N/A   Clear
4:35 PM 90.5 °F 93.3 °F 66.6 °F 45% 30.20 in 10.0 mi North - - N/A   Clear
4:55 PM 90.0 °F 92.4 °F 66.0 °F 45% 30.20 in 10.0 mi North - - N/A   Clear
5:15 PM 89.8 °F 91.8 °F 65.5 °F 44% 30.20 in 10.0 mi North - - N/A   Clear
5:35 PM 88.5 °F 91.6 °F 67.3 °F 49% 30.19 in 10.0 mi North - - N/A   Clear
5:55 PM 88.2 °F 91.3 °F 67.6 °F 50% 30.18 in 10.0 mi North - - N/A   Clear
6:10 PM 86.9 °F 91.0 °F 69.1 °F 55% 30.18 in 10.0 mi North - - N/A   Clear
6:35 PM 85.3 °F 90.4 °F 70.9 °F 62% 30.18 in 10.0 mi North - - N/A   Clear
6:55 PM 83.3 °F 88.2 °F 71.4 °F 67% 30.18 in 10.0 mi North - - N/A   Clear
7:15 PM 81.9 °F 87.0 °F 72.7 °F 74% 30.18 in 10.0 mi North - - N/A   Clear
7:35 PM 79.5 °F - 71.1 °F 75% 30.18 in 10.0 mi North - - N/A   Clear
7:55 PM 78.8 °F - 72.7 °F 81% 30.18 in 10.0 mi North - - N/A   Clear
8:15 PM 77.4 °F - 72.1 °F 84% 30.18 in 10.0 mi North - - N/A   Clear
8:35 PM 75.7 °F - 71.2 °F 86% 30.19 in 10.0 mi North - - N/A   Clear
8:55 PM 74.3 °F - 70.2 °F 87% 30.18 in 10.0 mi North - - N/A   Clear
9:15 PM 72.7 °F - 69.6 °F 90% 30.19 in 10.0 mi North - - N/A   Clear
9:35 PM 71.6 °F - 69.6 °F 93% 30.19 in 7.0 mi North - - N/A   Clear
9:55 PM 70.9 °F - 69.3 °F 95% 30.20 in 10.0 mi North - - N/A   Clear
10:15 PM 70.2 °F - 68.7 °F 95% 30.21 in 10.0 mi North - - N/A   Clear
10:35 PM 69.8 °F - 68.9 °F 97% 30.22 in 7.0 mi North - - N/A   Clear
10:55 PM 69.3 °F - 68.5 °F 98% 30.22 in 7.0 mi North - - N/A   Clear
11:15 PM 69.1 °F - 68.4 °F 98% 30.22 in 7.0 mi North - - N/A   Clear
11:35 PM 68.5 °F - 68.2 °F 99% 30.23 in 7.0 mi North - - N/A   Clear
11:55 PM 68.2 °F - 68.0 °F 99% 30.22 in 5.0 mi North - - N/A   Clear